Regional Weather Roundup
Issued by NWS San Diego, CA

Home | Current Version | Previous Version | Text Only | Print | Product List | Glossary On
Versions: 1 2 3 4 5 6 7 8 9 10 11 12 13 14 15 16 17 18 19 20 21 22 23 24 25 26 27
000
ASUS46 KSGX 230811
RWRSGX

SAN DIEGO HOURLY WEATHER ROUNDUP
NATIONAL WEATHER SERVICE SAN DIEGO CA
1200 AM PST THU FEB 23 2017

NOTE: "FAIR" INDICATES FEW OR NO CLOUDS BELOW 12,000 FEET WITH NO
SIGNIFICANT WEATHER AND/OR OBSTRUCTIONS TO VISIBILITY.

CAZ042-043-060-061-PZZ750-775-230900-

GREATER SAN DIEGO AREA

CITY           SKY/WX    TMP DP  RH WIND       PRES   REMARKS
SAN DIEGO AP   MOCLDY    56  46  69 CALM      30.08S
NATIONAL CITY    N/A     54  48  81 CALM      30.07S
CHULA VISTA      N/A     50  47  89 CALM      30.00S
IMPERIAL BEACH CLOUDY   N/A N/A N/A E6        30.08R
BROWN FIELD    PTCLDY    49  46  90 SE3       30.07S
MIRAMAR MCAS   PTCLDY    53  47  79 CALM      30.06S
MONTGOMERY FLD PTCLDY    50  45  83 E5        30.07R

$$

NORTH SAN DIEGO COUNTY

CITY           SKY/WX    TMP DP  RH WIND       PRES   REMARKS
CAMP PENDLETON PTCLDY    47  46  97 CALM      30.05S
OCEANSIDE AP   PTCLDY    51  48  89 CALM      30.05R
OCEANSIDE HBR    N/A     56  50  81 E3        30.07F
VISTA            N/A     51  47  85 CALM      30.04S
CARLSBAD       CLOUDY    53  47  79 S5        30.05S
DEL MAR          N/A     54  51  90 CALM      30.09R
LA JOLLA SCRIP   N/A     56  50  80 W5        30.07R
FALLBROOK        N/A     51  50  97 CALM      30.04S
ESCONDIDO        N/A     51  45  79 CALM      30.08S
SAN MARCOS       N/A     51  45  81 CALM      30.07S
POWAY            N/A     50  47  87 CALM      30.09S

$$

EAST SAN DIEGO COUNTY

CITY           SKY/WX    TMP DP  RH WIND       PRES   REMARKS
RAMONA         MOCLDY    46  45  96 CALM      30.05S
SANTEE LAKES     N/A     49  46  90 CALM      30.07R
LA MESA          N/A     49  46  87 CALM      30.01S
JAMUL            N/A     46  44  94 CALM      30.09R
DESCANSO N       N/A     40  38  92 W2        30.01S
CAMPO            N/A     43  40  89 SW10      29.99S

$$

ORANGE COUNTY AND THE LOS ANGELES BASIN

CITY           SKY/WX    TMP DP  RH WIND       PRES   REMARKS
JOHN WAYNE AP  CLEAR     54  40  59 NW3       30.06R
LAGUNA BEACH     N/A    N/A N/A N/A NW2       30.00S
LAKE FOREST FR   N/A     47  41  79 CALM      29.95S
HUNTINGTON BCH   N/A     54  38  55 NW2       30.08R
LOS ALAMITOS   FAIR      49  36  61 W8        30.06R
FULLERTON      CLEAR     51  45  79 CALM      30.05S
LONG BEACH     CLEAR     54  31  41 W12       30.07R
L.A. AP        PTCLDY    54  33  45 NW10      30.07S
L.A. DOWNTOWN  CLEAR     55  30  38 VRB3      30.06S

$$

THE INLAND EMPIRE

CITY           SKY/WX    TMP DP  RH WIND       PRES   REMARKS
CORONA         CLEAR     42  40  92 CALM      30.06R
CHINO          CLEAR     46  43  89 S3        30.05F
ONTARIO        PTCLDY    47  43  86 CALM      30.04S
SAN BERNARDINO FAIR      48  36  63 E3        30.04S
RIVERSIDE AP   CLEAR     47  43  86 CALM      30.04F
MORENO VALLEY    N/A     44  43  96 CALM      28.14S
MARCH ARB      PTCLDY    40  40 100 CALM      30.03S
HORSETHIEF CYN   N/A     43  35  73 CALM      30.07R
PERRIS           N/A     45  43  95 CALM      30.04S
HEMET EAST       N/A     44  37  78 CALM      30.11S
FRENCH VALLEY  FAIR      43  41  93 SE5       30.04S
TEMECULA         N/A     51  48  90 SW3       30.10S

$$

SAN BERNARDINO AND RIVERSIDE COUNTY MOUNTAINS

CITY           SKY/WX    TMP DP  RH WIND       PRES   REMARKS
BIG BEAR AP    PTCLDY    25  18  74 W13       29.95F WCI  13
PINE COVE        N/A     28  26  91 N5        29.98S WCI  23

$$

SOUTHERN DESERT INCLUDING THE COACHELLA VALLEY

CITY           SKY/WX    TMP DP  RH WIND       PRES   REMARKS
PALM SPRINGS   CLEAR     57  36  45 N3        29.90S
PALM DESERT      N/A     58  32  37 NE1       31.98S
THERMAL        CLEAR     59  35  40 N16       29.90F
BLYTHE         CLEAR     57  27  31 NW5       29.92R
EL CENTRO NAS  CLEAR     56  34  43 W21       29.96S
YUMA AZ        CLEAR     54  35  48 CALM      29.93
MEXICALI       CLEAR     57  34  41 W10       29.95S

$$

UPPER DESERT

CITY           SKY/WX    TMP DP  RH WIND       PRES   REMARKS
VICTORVILLE AP CLEAR     39  28  65 W10G16    30.05R WCI  32
HESPERIA         N/A     39  29  67 CALM      30.20R
PALMDALE       CLOUDY    42  30  62 W13       30.06S
LANCASTER      PTCLDY    41  31  67 NW14      30.06S
EDWARDS AFB    PTCLDY    42  24  49 W17G26    30.04S
DAGGETT        CLEAR     45  25  45 W29G40    29.99R
29 PALMS N     CLEAR     47  27  45 NW17G29   30.02F
NEEDLES        CLEAR     55  25  31 W14       29.89F

$$

REGIONAL REPORTS

CITY           SKY/WX    TMP DP  RH WIND       PRES   REMARKS
SANTA BARBARA  CLEAR     47  37  68 W9        30.12S
SANDBERG       CLOUDY    34  27  75 N25G32    30.03S WCI  21
LAS VEGAS NV   CLOUDY    48  30  49 NE7       29.85R
PHOENIX AZ     PTCLDY    61  33  35 NW20G25   29.81R
TIJUANA        MOCLDY    52  45  76 CALM      30.09S
ENSENADA NW      N/A     53  32  45 CALM      30.07S

$$

OFFSHORE ISLANDS

CITY           SKY/WX    TMP DP  RH WIND       PRES   REMARKS
CATALINA ARPT  CLEAR     48  38  68 W15G22    30.06S
SAN NICOLAS IS CLEAR    N/A N/A N/A W24G35    30.12F

$$

MARINE AND OFFSHORE BUOY REPORTS

STATION/POSITION SKY/WX   TEMP    WIND        PRES    VSBY  SWELL
                          AIR SEA DIR/SP/G                  HT/PER/DIR
                          (F)     (DEG/KT/KT) (MB)    (MI)  (FT/S/D)
TANNER BANKS               55 60  320/ 25/ 31 1020.1F         7/310/13
S CLEMENTE BASIN           56 59  310/ 25/ 31 1018.0F         8/280/14
SAN NICOLAS IS.               56                N/A           7/270/13
SO. S. ROSA ISLA           53 56  320/ 27/ 33 1020.6F         8/290/14
W. S. BARBARA CH           54 56  340/ 25/ 31 1021.3R         8/290/13
M. S. BARBARA CH                  300/ 21/ 25 1020.5
S. MONICA BASIN            55 58  300/ 19/ 25 1018.8R         5/280/13
S PEDRO CHANNEL               59                N/A           5/270/14
CMP PENDLETON NS              59                N/A           3/250/14
OCEANSIDE OFFSHR              59                N/A           3/250/14
TORREY PINES OTR              60                N/A           3/270/14
POINT LOMA SOUTH              60                N/A           5/260/13

$$





USA.gov is the U.S. government's official web portal to all federal, state and local government web resources and services.